| time (UTC) | temp C | wind direction | speed KPH | gust KPH | rain 1hr cm | rain 24hr cm | rain mn cm | humidity % | barometer mb |
| 20260504041934 | 11 | 223 | 0.0 | 0.0 | 0.00 | 0.00 | 0.00 | 69 | 1018.3 |
| 20260504041430 | 11 | 220 | 0.0 | 0.0 | 0.00 | 0.00 | 0.00 | 69 | 1018.3 |
| 20260504040926 | 11 | 235 | 0.0 | 0.0 | 0.00 | 0.00 | 0.00 | 69 | 1017.9 |
| 20260504040424 | 12 | 217 | 0.0 | 0.0 | 0.00 | 0.00 | 0.00 | 67 | 1018.3 |
| 20260504035920 | 12 | 240 | 0.0 | 0.0 | 0.00 | 0.00 | 0.00 | 66 | 1017.9 |
| 20260504035417 | 13 | 231 | 0.0 | 0.0 | 0.00 | 0.00 | 0.00 | 68 | 1017.9 |
| 20260504034914 | 13 | 230 | 0.0 | 0.0 | 0.00 | 0.00 | 0.00 | 68 | 1018.3 |
| 20260504034412 | 13 | 251 | 0.0 | 0.0 | 0.00 | 0.00 | 0.00 | 68 | 1017.9 |
| 20260504033908 | 13 | 241 | 0.0 | 0.0 | 0.00 | 0.00 | 0.00 | 68 | 1018.3 |
| 20260504033406 | 13 | 240 | 0.0 | 0.0 | 0.00 | 0.00 | 0.00 | 67 | 1017.9 |
| 20260504032903 | 13 | 249 | 0.0 | 0.0 | 0.00 | 0.00 | 0.00 | 66 | 1017.9 |
| 20260504032400 | 13 | 228 | 0.0 | 0.0 | 0.00 | 0.00 | 0.00 | 64 | 1017.9 |
| 20260504031856 | 13 | 266 | 0.0 | 0.0 | 0.00 | 0.00 | 0.00 | 66 | 1017.9 |
| 20260504031353 | 11 | 288 | 0.0 | 0.0 | 0.00 | 0.00 | 0.00 | 67 | 1017.9 |
| 20260504030850 | 11 | 246 | 0.0 | 0.0 | 0.00 | 0.00 | 0.00 | 70 | 1017.9 |
| 20260504030347 | 11 | 228 | 0.0 | 0.0 | 0.00 | 0.00 | 0.00 | 69 | 1017.9 |
| 20260504025843 | 11 | 234 | 0.0 | 0.0 | 0.00 | 0.00 | 0.00 | 68 | 1017.9 |
| 20260504025340 | 11 | 228 | 0.0 | 0.0 | 0.00 | 0.00 | 0.00 | 68 | 1017.9 |
| 20260504024837 | 11 | 195 | 0.0 | 0.0 | 0.00 | 0.00 | 0.00 | 69 | 1017.9 |
| 20260504024333 | 11 | 238 | 0.0 | 0.0 | 0.00 | 0.00 | 0.00 | 69 | 1017.6 |
| 20260504023830 | 11 | 233 | 0.0 | 0.0 | 0.00 | 0.00 | 0.00 | 68 | 1017.2 |
| 20260504023327 | 11 | 218 | 0.0 | 0.0 | 0.00 | 0.00 | 0.00 | 68 | 1017.2 |
| 20260504022822 | 11 | 230 | 0.0 | 0.0 | 0.00 | 0.00 | 0.00 | 68 | 1017.6 |
| 20260504022320 | 11 | 228 | 0.0 | 0.0 | 0.00 | 0.00 | 0.00 | 69 | 1017.2 |
| 20260504021816 | 11 | 235 | 0.0 | 0.0 | 0.00 | 0.00 | 0.00 | 69 | 1017.2 |
| 20260504021314 | 11 | 231 | 0.0 | 0.0 | 0.00 | 0.00 | 0.00 | 68 | 1017.6 |
| 20260504020811 | 11 | 229 | 0.0 | 0.0 | 0.00 | 0.00 | 0.00 | 68 | 1017.6 |
| 20260504020308 | 11 | 229 | 0.0 | 0.0 | 0.00 | 0.00 | 0.00 | 68 | 1017.6 |
| 20260504015803 | 12 | 220 | 0.0 | 0.0 | 0.00 | 0.00 | 0.00 | 67 | 1017.6 |
| 20260504015300 | 12 | 228 | 0.0 | 0.0 | 0.00 | 0.00 | 0.00 | 67 | 1017.6 |
| 20260504014756 | 12 | 228 | 0.0 | 0.0 | 0.00 | 0.00 | 0.00 | 66 | 1017.6 |
| 20260504014252 | 12 | 233 | 0.0 | 0.0 | 0.00 | 0.00 | 0.00 | 66 | 1017.2 |
| 20260504013750 | 12 | 226 | 0.0 | 0.0 | 0.00 | 0.00 | 0.00 | 67 | 1017.2 |
| 20260504013247 | 12 | 229 | 0.0 | 0.0 | 0.00 | 0.00 | 0.00 | 66 | 1017.6 |
| 20260504012743 | 12 | 232 | 0.0 | 0.0 | 0.00 | 0.00 | 0.00 | 68 | 1017.2 |
| 20260504012242 | 13 | 225 | 0.0 | 0.0 | 0.00 | 0.00 | 0.00 | 68 | 1017.2 |
| 20260504011738 | 13 | 229 | 0.0 | 0.0 | 0.00 | 0.00 | 0.00 | 67 | 1017.2 |
| 20260504011235 | 13 | 226 | 0.0 | 0.0 | 0.00 | 0.00 | 0.00 | 67 | 1016.8 |
| 20260504010731 | 13 | 224 | 0.0 | 0.0 | 0.00 | 0.00 | 0.00 | 67 | 1017.2 |
| 20260504010227 | 13 | 228 | 0.0 | 0.0 | 0.00 | 0.00 | 0.00 | 66 | 1017.2 |
| 20260504005724 | 13 | 230 | 0.0 | 0.0 | 0.00 | 0.00 | 0.00 | 66 | 1016.8 |
| 20260504005221 | 14 | 230 | 0.0 | 0.0 | 0.00 | 0.00 | 0.00 | 64 | 1017.2 |
| 20260504004719 | 14 | 232 | 0.0 | 0.0 | 0.00 | 0.00 | 0.00 | 62 | 1016.8 |
| 20260504004215 | 15 | 229 | 0.0 | 0.0 | 0.00 | 0.00 | 0.00 | 61 | 1016.8 |
| 20260504003712 | 15 | 231 | 0.0 | 0.0 | 0.00 | 0.00 | 0.00 | 59 | 1016.8 |
| 20260504003209 | 15 | 238 | 0.0 | 0.0 | 0.00 | 0.00 | 0.00 | 57 | 1016.8 |
| 20260504002706 | 16 | 232 | 0.0 | 0.0 | 0.00 | 0.00 | 0.00 | 56 | 1016.8 |
| 20260504002203 | 16 | 238 | 0.0 | 0.0 | 0.00 | 0.00 | 0.00 | 55 | 1016.8 |
| 20260504001701 | 16 | 237 | 0.0 | 0.0 | 0.00 | 0.00 | 0.00 | 55 | 1016.8 |
| 20260504001157 | 17 | 249 | 0.0 | 0.0 | 0.00 | 0.00 | 0.00 | 53 | 1016.8 |
| 20260504000654 | 17 | 241 | 0.0 | 0.0 | 0.00 | 0.00 | 0.00 | 53 | 1016.8 |
| 20260504000151 | 17 | 239 | 0.0 | 0.0 | 0.00 | 0.00 | 0.00 | 52 | 1016.5 |
| 20260503235649 | 18 | 235 | 0.0 | 0.0 | 0.00 | 0.00 | 0.00 | 53 | 1016.8 |
| 20260503235145 | 18 | 226 | 0.0 | 0.0 | 0.00 | 0.00 | 0.00 | 52 | 1016.8 |
| 20260503234644 | 18 | 251 | 0.0 | 0.0 | 0.00 | 0.00 | 0.00 | 51 | 1016.8 |
| 20260503234142 | 18 | 243 | 0.0 | 0.0 | 0.00 | 0.00 | 0.00 | 51 | 1017.2 |
| 20260503233638 | 20 | 262 | 0.0 | 0.0 | 0.00 | 0.00 | 0.00 | 57 | 1016.8 |
| 20260503233134 | 20 | 242 | 0.0 | 0.0 | 0.00 | 0.00 | 0.00 | 56 | 1016.8 |
| 20260503232631 | 20 | 238 | 0.0 | 0.0 | 0.00 | 0.00 | 0.00 | 55 | 1017.2 |
| 20260503232128 | 20 | 246 | 0.0 | 0.0 | 0.00 | 0.00 | 0.00 | 55 | 1016.8 |
| 20260503231626 | 20 | 263 | 0.0 | 0.0 | 0.00 | 0.00 | 0.00 | 55 | 1016.8 |
| 20260503231122 | 20 | 215 | 0.0 | 0.0 | 0.00 | 0.00 | 0.00 | 55 | 1016.8 |
| 20260503230619 | 20 | 220 | 0.0 | 0.0 | 0.00 | 0.00 | 0.00 | 55 | 1016.8 |
| 20260503230117 | 20 | 285 | 0.0 | 0.0 | 0.00 | 0.00 | 0.00 | 53 | 1017.2 |
| 20260503225614 | 20 | 240 | 0.0 | 0.0 | 0.00 | 0.00 | 0.00 | 52 | 1017.2 |
| 20260503225113 | 20 | 209 | 0.0 | 0.0 | 0.00 | 0.00 | 0.00 | 50 | 1016.8 |
| 20260503224611 | 21 | 234 | 0.0 | 0.0 | 0.00 | 0.00 | 0.00 | 49 | 1016.8 |
| 20260503224109 | 21 | 177 | 0.0 | 8.0 | 0.00 | 0.00 | 0.00 | 48 | 1017.2 |
| 20260503223607 | 21 | 194 | 0.0 | 0.0 | 0.00 | 0.00 | 0.00 | 47 | 1017.2 |
| 20260503223102 | 21 | 268 | 0.0 | 3.2 | 0.00 | 0.00 | 0.00 | 48 | 1017.2 |
| 20260503222600 | 22 | 201 | 0.0 | 0.0 | 0.00 | 0.00 | 0.00 | 47 | 1017.2 |
| 20260503222058 | 22 | 279 | 0.0 | 0.0 | 0.00 | 0.00 | 0.00 | 47 | 1017.6 |
| 20260503221556 | 21 | 271 | 0.0 | 0.0 | 0.00 | 0.00 | 0.00 | 48 | 1017.2 |
| 20260503221053 | 21 | 219 | 0.0 | 0.0 | 0.00 | 0.00 | 0.00 | 48 | 1017.2 |
| 20260503220549 | 21 | 259 | 0.0 | 0.0 | 0.00 | 0.00 | 0.00 | 47 | 1017.2 |
| 20260503220046 | 20 | 271 | 0.0 | 16.1 | 0.00 | 0.00 | 0.00 | 49 | 1017.2 |
| 20260503215543 | 21 | 278 | 0.0 | 16.1 | 0.00 | 0.00 | 0.00 | 48 | 1017.2 |
| 20260503215040 | 21 | 279 | 0.0 | 0.0 | 0.00 | 0.00 | 0.00 | 48 | 1017.2 |
| 20260503214539 | 21 | 284 | 9.7 | 16.1 | 0.00 | 0.00 | 0.00 | 48 | 1017.2 |
| 20260503214035 | 22 | 301 | 0.0 | 3.2 | 0.00 | 0.00 | 0.00 | 47 | 1017.2 |
| 20260503213533 | 22 | 225 | 0.0 | 0.0 | 0.00 | 0.00 | 0.00 | 47 | 1017.2 |
| 20260503213030 | 21 | 214 | 0.0 | 0.0 | 0.00 | 0.00 | 0.00 | 48 | 1017.6 |
| 20260503212527 | 20 | 139 | 0.0 | 3.2 | 0.00 | 0.00 | 0.00 | 49 | 1017.6 |
| 20260503212024 | 21 | 315 | 1.6 | 8.0 | 0.00 | 0.00 | 0.00 | 50 | 1017.6 |
| 20260503211521 | 21 | 279 | 1.6 | 3.2 | 0.00 | 0.00 | 0.00 | 48 | 1017.9 |
| 20260503211017 | 21 | 279 | 3.2 | 12.9 | 0.00 | 0.00 | 0.00 | 48 | 1017.9 |
| 20260503210514 | 21 | 280 | 6.4 | 12.9 | 0.00 | 0.00 | 0.00 | 47 | 1017.9 |
| 20260503210009 | 21 | 223 | 0.0 | 12.9 | 0.00 | 0.00 | 0.00 | 49 | 1017.9 |
| 20260503205506 | 22 | 228 | 0.0 | 0.0 | 0.00 | 0.00 | 0.00 | 48 | 1017.9 |
| 20260503205003 | 22 | 175 | 0.0 | 0.0 | 0.00 | 0.00 | 0.00 | 47 | 1017.9 |
| 20260503204500 | 21 | 236 | 0.0 | 8.0 | 0.00 | 0.00 | 0.00 | 48 | 1018.3 |
| 20260503203956 | 20 | 111 | 0.0 | 8.0 | 0.00 | 0.00 | 0.00 | 49 | 1018.3 |
| 20260503203454 | 20 | 148 | 0.0 | 0.0 | 0.00 | 0.00 | 0.00 | 48 | 1018.3 |
| 20260503202950 | 20 | 223 | 0.0 | 0.0 | 0.00 | 0.00 | 0.00 | 49 | 1018.3 |
| 20260503202449 | 21 | 232 | 0.0 | 0.0 | 0.00 | 0.00 | 0.00 | 49 | 1018.6 |
| 20260503201947 | 21 | 284 | 0.0 | 0.0 | 0.00 | 0.00 | 0.00 | 48 | 1019.0 |
| 20260503201444 | 21 | 271 | 0.0 | 0.0 | 0.00 | 0.00 | 0.00 | 50 | 1019.0 |
| 20260503200941 | 21 | 239 | 0.0 | 3.2 | 0.00 | 0.00 | 0.00 | 50 | 1019.0 |
| 20260503200437 | 21 | 217 | 0.0 | 0.0 | 0.00 | 0.00 | 0.00 | 48 | 1019.0 |
| 20260503195934 | 21 | 213 | 0.0 | 3.2 | 0.00 | 0.00 | 0.00 | 48 | 1019.0 |
| 20260503195432 | 20 | 252 | 0.0 | 3.2 | 0.00 | 0.00 | 0.00 | 49 | 1019.0 |
| 20260503194928 | 20 | 211 | 0.0 | 0.0 | 0.00 | 0.00 | 0.00 | 50 | 1019.3 |
| 20260503194425 | 20 | 206 | 0.0 | 0.0 | 0.00 | 0.00 | 0.00 | 49 | 1019.3 |
| 20260503193915 | 20 | 102 | 0.0 | 8.0 | 0.00 | 0.00 | 0.00 | 50 | 1019.3 |
| 20260503193410 | 20 | 144 | 1.6 | 3.2 | 0.00 | 0.00 | 0.00 | 50 | 1019.3 |
| 20260503192906 | 20 | 155 | 0.0 | 0.0 | 0.00 | 0.00 | 0.00 | 49 | 1019.6 |
| 20260503192403 | 20 | 209 | 0.0 | 3.2 | 0.00 | 0.00 | 0.00 | 50 | 1019.6 |
| 20260503191859 | 18 | 218 | 0.0 | 3.2 | 0.00 | 0.00 | 0.00 | 51 | 1020.0 |
| 20260503191356 | 18 | 234 | 0.0 | 3.2 | 0.00 | 0.00 | 0.00 | 51 | 1020.0 |
| 20260503190852 | 18 | 199 | 0.0 | 16.1 | 0.00 | 0.00 | 0.00 | 51 | 1020.0 |
| 20260503190350 | 18 | 208 | 0.0 | 8.0 | 0.00 | 0.00 | 0.00 | 51 | 1020.0 |
| 20260503185847 | 18 | 192 | 0.0 | 0.0 | 0.00 | 0.00 | 0.00 | 51 | 1020.0 |
| 20260503185343 | 19 | 221 | 0.0 | 0.0 | 0.00 | 0.00 | 0.00 | 51 | 1020.3 |
| 20260503184843 | 18 | 161 | 0.0 | 0.0 | 0.00 | 0.00 | 0.00 | 51 | 1020.0 |
| 20260503184339 | 18 | 213 | 0.0 | 0.0 | 0.00 | 0.00 | 0.00 | 51 | 1020.0 |
| 20260503183835 | 18 | 76 | 0.0 | 0.0 | 0.00 | 0.00 | 0.00 | 51 | 1020.3 |
| 20260503183332 | 19 | 210 | 0.0 | 0.0 | 0.00 | 0.00 | 0.00 | 50 | 1020.3 |
| 20260503182830 | 18 | 337 | 0.0 | 0.0 | 0.00 | 0.00 | 0.00 | 50 | 1020.3 |
| 20260503182329 | 18 | 279 | 0.0 | 8.0 | 0.00 | 0.00 | 0.00 | 52 | 1020.6 |
| 20260503181825 | 18 | 242 | 0.0 | 0.0 | 0.00 | 0.00 | 0.00 | 52 | 1020.3 |
| 20260503181322 | 16 | 142 | 0.0 | 8.0 | 0.00 | 0.00 | 0.00 | 52 | 1020.6 |
| 20260503180819 | 17 | 139 | 0.0 | 3.2 | 0.00 | 0.00 | 0.00 | 51 | 1020.6 |
| 20260503180317 | 17 | 146 | 0.0 | 0.0 | 0.00 | 0.00 | 0.00 | 52 | 1020.6 |
| 20260503175813 | 17 | 172 | 0.0 | 0.0 | 0.00 | 0.00 | 0.00 | 51 | 1020.6 |
| 20260503175311 | 17 | 176 | 0.0 | 3.2 | 0.00 | 0.00 | 0.00 | 50 | 1021.0 |
| 20260503174806 | 16 | 117 | 0.0 | 0.0 | 0.00 | 0.00 | 0.00 | 52 | 1021.0 |
| 20260503174305 | 17 | 103 | 0.0 | 0.0 | 0.00 | 0.00 | 0.00 | 50 | 1021.0 |
| 20260503173800 | 18 | 165 | 0.0 | 0.0 | 0.00 | 0.00 | 0.00 | 52 | 1021.0 |
| 20260503173256 | 18 | 185 | 0.0 | 0.0 | 0.00 | 0.00 | 0.00 | 52 | 1021.3 |
| 20260503172753 | 18 | 213 | 0.0 | 0.0 | 0.00 | 0.00 | 0.00 | 50 | 1021.3 |
| 20260503172250 | 17 | 141 | 0.0 | 3.2 | 0.00 | 0.00 | 0.00 | 51 | 1021.3 |
| 20260503171746 | 18 | 241 | 0.0 | 0.0 | 0.00 | 0.00 | 0.00 | 52 | 1021.3 |
| 20260503171244 | 16 | 131 | 0.0 | 0.0 | 0.00 | 0.00 | 0.00 | 53 | 1021.8 |
| 20260503170741 | 15 | 93 | 0.0 | 0.0 | 0.00 | 0.00 | 0.00 | 55 | 1021.3 |
| 20260503170237 | 15 | 93 | 0.0 | 0.0 | 0.00 | 0.00 | 0.00 | 55 | 1021.3 |
| 20260503160159 | 14 | 81 | 0.0 | 3.2 | 0.00 | 0.00 | 0.00 | 57 | 1022.4 |
| 20260503150630 | 13 | 337 | 0.0 | 0.0 | 0.00 | 0.00 | 0.00 | 58 | 1022.4 |
| 20260503150125 | 14 | 55 | 0.0 | 0.0 | 0.00 | 0.00 | 0.00 | 58 | 1022.8 |
| 20260503131020 | 10 | 132 | 0.0 | 0.0 | 0.00 | 0.00 | 0.00 | 66 | 1022.4 |
| 20260503130517 | 10 | 228 | 0.0 | 0.0 | 0.00 | 0.00 | 0.00 | 67 | 1022.4 |
| 20260503110407 | 6 | 213 | 0.0 | 0.0 | 0.00 | 0.00 | 0.00 | 85 | 1021.3 |
| 20260503090258 | 7 | 245 | 0.0 | 0.0 | 0.00 | 0.00 | 0.00 | 76 | 1020.0 |
| 20260503081231 | 8 | 220 | 0.0 | 0.0 | 0.00 | 0.00 | 0.00 | 77 | 1019.6 |
| 20260503080726 | 7 | 190 | 0.0 | 0.0 | 0.00 | 0.00 | 0.00 | 77 | 1019.6 |
| 20260503080224 | 7 | 214 | 0.0 | 0.0 | 0.00 | 0.00 | 0.00 | 78 | 1019.6 |
| 20260503072701 | 7 | 227 | 0.0 | 0.0 | 0.00 | 0.00 | 0.00 | 79 | 1019.6 |
| 20260503072157 | 7 | 231 | 0.0 | 0.0 | 0.00 | 0.00 | 0.00 | 79 | 1019.3 |
| 20260503071654 | 7 | 233 | 0.0 | 0.0 | 0.00 | 0.00 | 0.00 | 79 | 1019.6 |
| 20260503071151 | 7 | 222 | 0.0 | 0.0 | 0.00 | 0.00 | 0.00 | 79 | 1019.3 |
| 20260503070648 | 7 | 224 | 0.0 | 0.0 | 0.00 | 0.00 | 0.00 | 79 | 1019.3 |
| 20260503070146 | 7 | 241 | 0.0 | 0.0 | 0.00 | 0.00 | 0.00 | 78 | 1019.3 |
| 20260503060110 | 8 | 223 | 0.0 | 0.0 | 0.00 | 0.00 | 0.00 | 78 | 1019.0 |
| 20260503055102 | 8 | 228 | 0.0 | 0.0 | 0.00 | 0.00 | 0.00 | 78 | 1019.0 |
| 20260503054557 | 8 | 221 | 0.0 | 0.0 | 0.00 | 0.00 | 0.00 | 78 | 1019.0 |
| 20260503054055 | 8 | 230 | 0.0 | 0.0 | 0.00 | 0.00 | 0.00 | 78 | 1019.0 |
| 20260503053553 | 8 | 224 | 0.0 | 0.0 | 0.00 | 0.00 | 0.00 | 78 | 1019.3 |
| 20260503053050 | 8 | 221 | 0.0 | 0.0 | 0.00 | 0.00 | 0.00 | 79 | 1019.3 |
| 20260503052547 | 7 | 235 | 0.0 | 0.0 | 0.00 | 0.00 | 0.00 | 78 | 1019.0 |
| 20260503052043 | 8 | 223 | 0.0 | 0.0 | 0.00 | 0.00 | 0.00 | 78 | 1019.0 |
| 20260503051539 | 8 | 224 | 0.0 | 0.0 | 0.00 | 0.00 | 0.00 | 78 | 1019.0 |
| 20260503051037 | 8 | 222 | 0.0 | 0.0 | 0.00 | 0.00 | 0.00 | 78 | 1019.0 |
| 20260503050532 | 8 | 240 | 0.0 | 0.0 | 0.00 | 0.00 | 0.00 | 78 | 1019.0 |
| 20260503050030 | 8 | 223 | 0.0 | 0.0 | 0.00 | 0.00 | 0.00 | 77 | 1019.0 |
| 20260503045527 | 8 | 226 | 0.0 | 0.0 | 0.00 | 0.00 | 0.00 | 77 | 1019.0 |
| 20260503045024 | 8 | 214 | 0.0 | 0.0 | 0.00 | 0.00 | 0.00 | 77 | 1019.0 |
| 20260503044520 | 8 | 243 | 0.0 | 0.0 | 0.00 | 0.00 | 0.00 | 75 | 1019.0 |
| 20260503044019 | 8 | 233 | 0.0 | 0.0 | 0.00 | 0.00 | 0.00 | 74 | 1019.0 |
| 20260503043514 | 9 | 228 | 0.0 | 0.0 | 0.00 | 0.00 | 0.00 | 72 | 1019.0 |
| 20260503043011 | 9 | 235 | 0.0 | 0.0 | 0.00 | 0.00 | 0.00 | 72 | 1019.0 |
| 20260503042508 | 9 | 233 | 0.0 | 0.0 | 0.00 | 0.00 | 0.00 | 70 | 1018.6 |